Powrót do katalogu

ICEYE-X44

AktywnyNaukaSSO
NORAD 62707·PAYLOAD·🇦🇪 UAE

Wystrzelony Jan 14, 2025 z Vandenberg Space Force Base

Loading…

Następne Przeloty (najbliższe 24 godziny)

TLE

ŚwieżeSource: Space-Track

Epoka: Sep 14, 2026, 03:56 UTC

1 62707U 25009DC  26257.16415040  .00002602  00000-0  23453-3 0  9991
2 62707  97.7000 334.8804 0002106 137.6896 222.4489 14.96425674113246

Śledź ICEYE-X44 w czasie rzeczywistym z AllMySat

Download on the App Store